User: anonymous   Login
Location: Unspecified
(33.8360°N, 0.0000°E)
Time: 05:29:15
(UTC+00:00)
Language:

WILDFIRE 3 - Orbit

View from above orbital plane
View from above orbital plane
View from above satellite
View from above satellite

Ground track
Ground track

The orbit is defined by the following mean orbital elements,

1 57758U          26088.05032160 +.00000000 +00000-0 +52229-4 0 00000
2 57758  80.9930  83.0422 0008155 205.1616 154.9144 13.86117280    07
Epoch (UTC): 29 March 2026 01:12:27
Eccentricity: 0.0008155
inclination: 80.9930°
perigee height: 936 km
apogee height: 948 km
right ascension of ascending node: 83.0422°
argument of perigee: 205.1616°
revolutions per day: 13.86117280
mean anomaly at epoch: 154.9144°

The dashed part of the orbit path shows where the satellite is in the earth's shadow,  

DLR